This is the latest recevied weather packets stored in our database for station/object WD4LSS. If no packets are shown the sender has not sent any weather packets the latest 10 day(s).
| Time | Temp. | Humidity | Pressure | Rain* | Wind** | Luminosity | Snow |
|---|---|---|---|---|---|---|---|
| 1777456537 | 12.78° C | 98% | 1015.1 hPa | 0 mm | - | - | - |
| 1777455617 | 12.78° C | 98% | 1015.3 hPa | 0 mm | - | - | - |
| 1777455017 | 12.78° C | 98% | 1015.4 hPa | 0 mm | - | - | - |
| 1777453517 | 12.78° C | 98% | 1015.3 hPa | 0 mm | - | - | - |
| 1777452317 | 12.22° C | 98% | 1015.6 hPa | 0 mm | - | - | - |
| 1777449337 | 12.22° C | 97% | 1014.6 hPa | 0 mm | - | - | - |
| 1777448417 | 12.22° C | 96% | 1014.5 hPa | 0 mm | - | - | - |
| 1777446316 | 12.22° C | 96% | 1015 hPa | 0 mm | - | - | - |
| 1777444216 | 12.22° C | 96% | 1015.5 hPa | 0 mm | - | - | - |
| 1777441216 | 12.22° C | 95% | 1015.7 hPa | 0 mm | - | - | - |
| 1777437316 | 12.78° C | 95% | 1016.7 hPa | 0 mm | - | - | - |
| 1777436136 | 12.78° C | 94% | 1017.2 hPa | 0 mm | - | - | - |
| 1777435216 | 12.78° C | 94% | 1017.3 hPa | 0 mm | - | - | - |
| 1777434617 | 12.78° C | 94% | 1017.6 hPa | 0 mm | - | - | - |
| 1777433437 | 13.33° C | 94% | 1017.7 hPa | 0 mm | - | - | - |
| 1777431937 | 13.33° C | 94% | 1018 hPa | 0 mm | - | - | - |
| 1777428917 | 13.89° C | 93% | 1019 hPa | 0 mm | - | - | - |
| 1777428617 | 13.89° C | 93% | 1019.1 hPa | 0 mm | - | - | - |
| 1777428037 | 13.89° C | 92% | 1019 hPa | 0 mm | - | - | - |
| 1777427117 | 13.89° C | 92% | 1018.6 hPa | 0 mm | - | - | - |
| 1777426237 | 13.89° C | 91% | 1018.1 hPa | 0 mm | - | - | - |
| 1777424117 | 15° C | 89% | 1017.6 hPa | 0 mm | - | - | - |
| 1777423217 | 15° C | 88% | 1017.4 hPa | 0 mm | - | - | - |
| 1777422337 | 15.56° C | 87% | 1017.2 hPa | 0 mm | - | - | - |
| 1777421717 | 15.56° C | 87% | 1017.3 hPa | 0 mm | - | - | - |
* Rain latest hour (hover to see other rain measurements)
** Current wind speed in m/s (hover to see current wind gust speed)